Location: Standeford and Andreas Observatories
(44.1397°N, 93.9969°W)
Time: 06:53:54
(UTC-05:00)

Cosmos 1500 Rocket - Visible Passes

Search period start: 28 April 2015 00:00
Search period end: 08 May 2015 00:00
Orbit: 605 x 632 km, 82.5° (Epoch: 27 April)

Date Brightness Start Highest point End Pass type
(mag) Time Alt. Az. Time Alt. Az. Time Alt. Az.
28 Apr 6.0 03:03:44 13° ESE 03:05:36 16° E 03:08:27 10° NE visible
28 Apr 3.9 04:40:53 25° SW 04:43:06 48° WNW 04:47:27 10° N visible
29 Apr 5.2 03:21:00 22° SE 03:22:35 28° E 03:26:26 10° NNE visible
29 Apr 4.7 04:58:09 18° WSW 05:00:27 27° WNW 05:04:14 10° NNW visible
30 Apr 4.2 03:38:16 37° SE 03:39:37 52° E 03:43:59 10° NNE visible
30 Apr 5.4 05:15:25 11° WSW 05:17:55 16° WNW 05:20:36 10° NNW visible
01 May 3.5 03:55:30 47° SSW 03:56:44 85° W 04:01:14 10° N visible
02 May 5.8 02:35:33 16° E 02:36:26 17° E 02:39:21 10° NE visible
02 May 4.0 04:12:42 36° WSW 04:13:58 46° WNW 04:18:17 10° N visible
03 May 5.0 02:52:45 28° ESE 02:53:25 29° E 02:57:19 10° NNE visible
03 May 4.8 04:29:54 22° WSW 04:31:18 26° WNW 04:35:04 10° NNW visible
04 May 4.0 03:09:55 50° ESE 03:10:27 53° E 03:14:50 10° NNE visible
04 May 5.5 04:47:04 13° W 04:48:46 16° WNW 04:51:23 10° NNW visible
05 May 3.4 03:27:04 69° SSW 03:27:34 83° W 03:32:04 10° N visible
06 May 5.8 02:07:04 17° E 02:07:15 17° E 02:10:16 10° NE visible
06 May 4.0 03:44:12 42° W 03:44:48 45° WNW 03:49:06 10° N visible
07 May 5.0 02:24:11 30° E 02:24:13 30° E 02:28:11 10° NNE visible
07 May 4.8 04:01:20 24° W 04:02:08 26° WNW 04:05:51 10° NNW visible
